Location: Barcelona
(41.3830°N, 2.1830°E)
Time: 18:20:57
(UTC+01:00)

ISS - Pass Details

Date: 20 January 2020
Orbit: 415 x 422 km, 51.6° (Epoch: 23 January)

Event Time Altitude Azimuth Distance (km) Brightness Sun altitude
Rises 18:19:17 0° 182° (S) 2,354 0.4 -5.5°
Reaches altitude 10° 18:22:52 10° 142° (SE) 1,496 -1.1 -6.1°
Maximum altitude 18:23:38 11° 129° (SE) 1,460 -1.3 -6.3°
Drops below altitude 10° 18:24:25 10° 115° (ESE) 1,498 -1.4 -6.4°
Enters shadow 18:25:56 - 93° (E) 1,758 -1.2 -6.7°
